Simultaneous Nadir Overpasses (SNOs) Predictions

Prediction of SNOs between AQUA and NOAA-19 Satellite Orbit:

Table of predicted SNOs for the next 14.0 days since TLE Epoch: 11/14/2014
Index Date (AQUA) Time (AQUA) Lat,Lon (AQUA) SZA (AQUA ) Date (NOAA-19) Time (NOAA-19) Lat,Lon (NOAA-19) SZA (NOAA-19 ) Distance(km) Time Diff (sec)
1 11/16/2014 14:49:37 -78.71, 115.51 82.01 11/16/2014 14:49:43 -78.72, 115.45 82.00 1.51 6
2 11/18/2014 19:33:59 -78.83, 43.75 81.31 11/18/2014 19:33:25 -78.82, 43.86 81.32 2.78 34
3 11/18/2014 20:23:20 78.58,-147.22 98.38 11/18/2014 20:24:17 78.58,-147.29 98.37 1.53 57
4 11/21/2014 00:18:22 -78.97, -28.13 80.62 11/21/2014 00:17:09 -78.96, -28.01 80.62 2.73 73
5 11/21/2014 01:07:42 78.68, 141.14 99.02 11/21/2014 01:07:59 78.67, 141.23 99.00 2.19 17
6 11/23/2014 05:52:05 78.84, 69.15 99.71 11/23/2014 05:51:43 78.84, 69.23 99.70 1.86 22
7 11/23/2014 06:40:08 -75.00,-108.52 84.71 11/23/2014 06:41:22 -75.26,-107.14 84.47 49.05 74
8 11/25/2014 10:36:28 79.02, -2.98 100.40 11/25/2014 10:35:28 79.03, -3.09 100.43 2.54 60
9 11/25/2014 11:25:46 -78.69, 166.59 80.04 11/25/2014 11:26:24 -78.68, 166.60 80.05 0.44 38




NCC Satellite Simultaneous Nadir Overpasses (SNOs) Prediction Service
